This is the latest recevied weather packets stored in our database for station/object OE-11053. If no packets are shown the sender has not sent any weather packets the latest 10 day(s).
| Time | Temp. | Humidity | Pressure | Rain* | Wind** | Luminosity | Snow |
|---|---|---|---|---|---|---|---|
| 1787828723 | 26.11° C | 53% | 1014 hPa | 0 mm | - | 716 W/m² | - |
| 1787828123 | 26.11° C | 52% | 1014.2 hPa | 0 mm | - | 716 W/m² | - |
| 1787827295 | 25.56° C | 53% | 1014.3 hPa | 0 mm | - | 748 W/m² | - |
| 1787826922 | 26.11° C | 53% | 1014.3 hPa | 0 mm | - | 742 W/m² | - |
| 1787826323 | 25.56° C | 54% | 1014.3 hPa | 0 mm | - | 716 W/m² | - |
| 1787825496 | 25.56° C | 55% | 1014.3 hPa | 0 mm | - | 697 W/m² | - |
| 1787825123 | 25.56° C | 54% | 1014.3 hPa | 0 mm | - | 671 W/m² | - |
| 1787824523 | 25° C | 56% | 1014.4 hPa | 0 mm | - | 729 W/m² | - |
| 1787823696 | 24.44° C | 56% | 1014.4 hPa | 0 mm | - | 633 W/m² | - |
| 1787823323 | 24.44° C | 56% | 1014.4 hPa | 0 mm | - | 627 W/m² | - |
| 1787822722 | 24.44° C | 57% | 1014.6 hPa | 0 mm | - | 646 W/m² | - |
| 1787821896 | 24.44° C | 57% | 1014.5 hPa | 0 mm | - | 607 W/m² | - |
| 1787821522 | 23.33° C | 58% | 1014.7 hPa | 0 mm | - | 563 W/m² | - |
| 1787820923 | 23.33° C | 58% | 1014.7 hPa | 0 mm | - | 556 W/m² | - |
| 1787820096 | 23.33° C | 57% | 1014.7 hPa | 0 mm | - | 569 W/m² | - |
| 1787819723 | 23.33° C | 58% | 1014.7 hPa | 0 mm | - | 524 W/m² | - |
| 1787819123 | 23.33° C | 58% | 1014.6 hPa | 0 mm | - | 556 W/m² | - |
| 1787818296 | 22.78° C | 59% | 1014.8 hPa | 0 mm | - | 537 W/m² | - |
| 1787817922 | 22.22° C | 61% | 1014.9 hPa | 0 mm | - | 505 W/m² | - |
| 1787817322 | 22.22° C | 60% | 1014.9 hPa | 0 mm | - | 492 W/m² | - |
| 1787816496 | 22.22° C | 60% | 1014.8 hPa | 0 mm | - | 428 W/m² | - |
| 1787816122 | 21.67° C | 61% | 1014.7 hPa | 0 mm | - | 403 W/m² | - |
| 1787814696 | 21.67° C | 60% | 1015.1 hPa | 0 mm | - | 371 W/m² | - |
| 1787813723 | 21.11° C | 62% | 1015.1 hPa | 0 mm | - | 301 W/m² | - |
| 1787812896 | 21.11° C | 63% | 1015.3 hPa | 0 mm | - | 256 W/m² | - |
* Rain latest hour (hover to see other rain measurements)
** Current wind speed in m/s (hover to see current wind gust speed)